Voltar ao catálogo

STARLINK-4706

AtivoComunicaçõesVLEO
NORAD 53779·PAYLOAD·🇺🇸 United States

Lançado Sep 11, 2022 de Cape Canaveral Space Force Station

Loading…

Próximas Passagens (próximas 24 horas)

TLE

AtualizadoSource: CelesTrak SupGP

Época: Sep 15, 2026, 01:46 UTC

1 53779C 22111G   26258.07409722  .00043335  00000+0  13938-2 0  2583
2 53779  53.1569 131.0917 0001478  84.9080 188.3983 15.31675113    17

Acompanhe STARLINK-4706 em tempo real com AllMySat

Download on the App Store